Back to catalog

METEOR 1-5 DEB

AlivePO
NORAD 58397·DEBRIS·🇷🇺 Russia

Launched Jun 23, 1970 from Plesetsk Cosmodrome

Loading…

Next Passes (next 24 hours)

TLE

FreshSource: Space-Track

Epoch: Sep 14, 2026, 03:45 UTC

1 58397U 70047D   26257.15674797  .00000402  00000-0  19423-3 0  9996
2 58397  81.2176 148.4383 0029690 156.2287 204.0267 14.16621957149048

Track METEOR 1-5 DEB in real time with AllMySat

Download on the App Store